135  
ASUS41 KCLE 092002  
RWRCLE  
OHIO REGIONAL WEATHER ROUNDUP  
NATIONAL WEATHER SERVICE CLEVELAND, OH  
400 PM EDT TUE AUG 09 2022  
 
NOTE: "FAIR" INDICATES FEW OR NO CLOUDS BELOW 12,000 FEET WITH NO  
SIGNIFICANT WEATHER AND/OR S TO VISIBILITY
.  
 
OHZ001>008-015>018-024>027-034-035-043-044-092100-  
NORTHWEST OHIO  
 
CITY SKY/WX TMP DP RH WIND PRES REMARKS
 
DEFIANCE CLOUDY 72 64 76 NE6 30.07F  
FINDLAY CLOUDY 74 65 73 E7 30.05F  
TOLEDO EXPRESS CLOUDY 75 62 64 N3 30.07F  
TOLEDO EXEC CLOUDY 74 62 66 CALM 30.08F  
LIMA CLOUDY 70 65 84 NE9 30.06F  

 
 
OHZ009>014-019>023-028>033-038-089-092100-  
NORTHEAST OHIO  
 
CITY SKY/WX TMP DP RH WIND PRES REMARKS
 
CLE-HOPKINS PTSUNNY 73 60 63 N9 30.06F  
CLE-LAKEFRONT PTSUNNY 74 62 66 N6 30.06F  
CUY CO. ARPT PTSUNNY 73 61 64 N6 30.07F  
LORAIN-ELYRIA CLOUDY 74 61 63 N6 30.08F  
ASHTABULA CLOUDY 72 59 63 N8 30.08F  
AKRON-CANTON CLOUDY 73 66 78 N7 30.07F  
WOOSTER CLOUDY 71 66 84 N7 30.08F  
MANSFIELD CLOUDY 70 65 84 NE7 30.08F  
YOUNGSTOWN CLOUDY 75 63 66 NW8 30.07F  

 
 
OHZ042-051>053-060>062-070>072-077>081-092100-  
SOUTHWEST OHIO  
 
CITY SKY/WX TMP DP RH WIND PRES REMARKS
 
CINC-COVINGTON MOSUNNY 86 72 62 W7 30.03F HX 92  
CINC-LUNKEN MOSUNNY 86 72 62 NW7 30.02F HX 92  
HAMILTON MOSUNNY 80 75 84 CALM 30.03F  
DAYTON CLOUDY 80 71 74 VRB3 30.05S  
WRIGHT-PAT AFB NOT AVBL  
DAYTON GENERAL PTSUNNY 81 73 76 CALM 30.02F  
WILMINGTON HVY RAIN 76 74 93 S6 30.04S VSB 3/4  

 
 
OHZ036-037-039>041-045>050-054>059-063>069-073>076-082>088-092100-  
CENTRAL AND SOUTHEAST OHIO  
 
CITY SKY/WX TMP DP RH WIND PRES REMARKS
 
COLUMBUS CLOUDY 82 72 71 N13 30.03S  
OSU AIRPORT PTSUNNY 79 70 74 N9 30.04F  
BOLTON FIELD CLOUDY 79 72 78 NW10 30.04F  
RICKENBACK AFB CLOUDY 79 75 86 SW3 30.03S THUNDER  
NEWARK PTSUNNY 81 72 74 NE3 30.03S  
MARION CLOUDY 72 66 81 NE9 30.07F  
LANCASTER LGT RAIN 78 75 90 CALM 30.04S  
ZANESVILLE PTSUNNY 82 73 74 N6 30.03S  
NEW PHILLY NOT AVBL  

 
 
 
CLICK HERE TO GO TO PREVIOUS BULLETINS.

The Nexlab OH Page
The Nexlab PA Page Main Text Page